YAM-8

operational
NORAD ID: 63254 Int'l Des: 2025-052 Owner: LOFT Country: US
LEOCIRCULARRETROGRADESSO

About YAM-8

Description loading...

Live Position

Loading 3D Globe...

Upcoming Passes

Altitude History

Altitude vs Time

uPlot chart will show altitude changes over time

Two-Line Element Set

1 63254U 25052AW 25311.27900795 .00010241 00000-0 64975-3 0 9997
2 63254 97.7093 206.3311 0001239 183.2618 176.8603 15.09093253 35766
Epoch: Nov 7, 2025 • Age: 10 hours

Current Status

Altitude 546.9 km
Velocity 7.59 km/s
Sub-Earth Point 47.10°N, 95.53°W
Launch Date Mar 15, 2025
Age 0.6 years
Type other

Technical Details

Classification Payload
Mass 150.00 kg
Dry Mass 140.00 kg
Total Mass 150.00 kg
Length 1.30 m
Diameter 1.00 m
Span 5.00 m
Shape Trapezoid+2 pan
Manufacturer ADST
Bus Type ARROW
Phase Status In Orbit
Owner/State LOFT/US

Large Constellations

Loading constellations...